Regional Weather Roundup
Issued by NWS Cleveland, OH

Home | Current Version | Previous Version | Text Only | Print | Product List | Glossary Off
Versions: 1 2 3 4 5 6 7 8 9 10 11 12 13 14 15 16 17 18 19 20 21 22 23 24 25 26 27 28 29 30 31 32 33 34 35 36 37 38 39 40 41 42 43 44 45 46 47 48 49 50

000
ASUS41 KCLE 261600
RWRCLE
OHIO REGIONAL WEATHER ROUNDUP
NATIONAL WEATHER SERVICE WILMINGTON, OH
1200 PM EDT MON SEP 26 2016

NOTE: "FAIR" INDICATES FEW OR NO CLOUDS BELOW 12,000 FEET WITH NO
SIGNIFICANT WEATHER AND/OR OBSTRUCTIONS TO VISIBILITY.

OHZ001>008-015>018-024>027-034-035-043-044-261700-
   NORTHWEST OHIO

CITY           SKY/WX    TMP DP  RH WIND       PRES   REMARKS
DEFIANCE       PTSUNNY   64  55  72 W10G18    29.99R
FINDLAY        PTSUNNY   63  57  81 W16G22    29.96F
TOLEDO EXPRESS CLOUDY    62  61  96 W14       29.95R
TOLEDO EXEC    CLOUDY    63  60  90 W12       29.94F
LIMA           CLOUDY    60  58  92 W14       30.01R
$$

OHZ009>014-019>023-028>033-038-089-261700-
   NORTHEAST OHIO

CITY           SKY/WX    TMP DP  RH WIND       PRES   REMARKS
CLE-HOPKINS    LGT RAIN  64  59  83 S3        29.96F
CLE-LAKEFRONT  RAIN      66  59  78 W16       29.94F
CUY CO. ARPT   CLOUDY    66  64  94 W9        29.97S
LORAIN-ELYRIA  LGT RAIN  61  58  90 W5        29.96F
ASHTABULA      CLOUDY    61  61 100 W8        29.96R
AKRON-CANTON   CLOUDY    65  57  75 NW12      29.99S
WOOSTER        NOT AVBL
MANSFIELD      LGT RAIN  60  59  96 S5        29.98F
YOUNGSTOWN     LGT RAIN  62  58  86 W6        29.99R
$$

OHZ042-051>053-060>062-070>072-077>081-261700-
  SOUTHWEST OHIO

CITY           SKY/WX    TMP DP  RH WIND       PRES   REMARKS
CINC-COVINGTON LGT RAIN  61  60  97 W9        30.08R FOG
CINC-LUNKEN    RAIN      63  62  97 W7        30.09R FOG
HAMILTON       LGT RAIN  62  59  90 W7        30.09R
DAYTON         CLOUDY    61  58  90 W9        30.05R
WRIGHT-PAT AFB DRIZZLE   63  61  94 W8        30.03R
DAYTON GENERAL LGT RAIN  61  58  90 W8        30.05R
WILMINGTON     RAIN      61  60  97 W9        30.05S FOG
$$

OHZ036-037-039>041-045>050-054>059-063>069-073>076-082>088-261700-
  CENTRAL AND SOUTHEAST OHIO

CITY           SKY/WX    TMP DP  RH WIND       PRES   REMARKS
COLUMBUS       LGT RAIN  64  58  80 NE3       29.99F
OSU AIRPORT    LGT RAIN  62  59  90 CALM      30.01S
BOLTON FIELD   CLOUDY    63  59  88 SW6       30.03R
RICKENBACK AFB NOT AVBL
NEWARK         CLOUDY    67  56  67 NW7       30.01R
MARION         LGT RAIN  61  58  90 SW3       29.99F
LANCASTER      CLOUDY    68  56  65 W7        30.03R
ZANESVILLE     CLOUDY    70  58  65 NW17G24   30.01R
NEW PHILLY     CLOUDY    69  58  67 NW13G18   30.00R
$$




USA.gov is the U.S. government's official web portal to all federal, state and local government web resources and services.